| time (UTC) | temp C | wind direction | speed KPH | gust KPH | rain 1hr cm | rain 24hr cm | rain mn cm | humidity % | barometer mb |
| 20260509000526 | 13 | 313 | 4.8 | 4.8 | 0.00 | 0.00 | 0.00 | 83 | |
| 20260509000021 | 13 | 272 | 3.2 | 4.8 | 0.00 | 0.00 | 0.00 | 81 | |
| 20260508235519 | 13 | 261 | 6.4 | 8.0 | 0.00 | 0.00 | 0.00 | 80 | |
| 20260508235015 | 14 | 271 | 4.8 | 8.0 | 0.00 | 0.00 | 0.00 | 78 | |
| 20260508234513 | 14 | 268 | 8.0 | 11.3 | 0.00 | 0.00 | 0.00 | 74 | |
| 20260508234010 | 15 | 246 | 4.8 | 4.8 | 0.00 | 0.00 | 0.00 | 72 | |
| 20260508233509 | 15 | 287 | 6.4 | 8.0 | 0.00 | 0.00 | 0.00 | 71 | |
| 20260508233006 | 15 | 282 | 8.0 | 12.9 | 0.00 | 0.00 | 0.00 | 67 | |
| 20260508232503 | 15 | 268 | 8.0 | 11.3 | 0.00 | 0.00 | 0.00 | 67 | |
| 20260508231959 | 15 | 265 | 4.8 | 8.0 | 0.00 | 0.00 | 0.00 | 69 | |
| 20260508231457 | 15 | 257 | 0.0 | 1.6 | 0.00 | 0.00 | 0.00 | 73 | |
| 20260508230954 | 15 | 232 | 0.0 | 0.0 | 0.00 | 0.00 | 0.00 | 75 | |
| 20260508230450 | 15 | 222 | 0.0 | 0.0 | 0.00 | 0.00 | 0.00 | 68 | |
| 20260508225947 | 15 | 222 | 0.0 | 0.0 | 0.00 | 0.00 | 0.00 | 66 | |
| 20260508225444 | 15 | 238 | 0.0 | 0.0 | 0.00 | 0.00 | 0.00 | 64 | |
| 20260508224941 | 15 | 232 | 0.0 | 0.0 | 0.00 | 0.00 | 0.00 | 66 | |
| 20260508224439 | 15 | 223 | 0.0 | 0.0 | 0.00 | 0.00 | 0.00 | 65 | |
| 20260508223936 | 16 | 224 | 0.0 | 0.0 | 0.00 | 0.00 | 0.00 | 63 | |
| 20260508223434 | 15 | 221 | 0.0 | 0.0 | 0.00 | 0.00 | 0.00 | 64 | |
| 20260508222931 | 16 | 224 | 0.0 | 0.0 | 0.00 | 0.00 | 0.00 | 64 | |
| 20260508222428 | 16 | 226 | 0.0 | 0.0 | 0.00 | 0.00 | 0.00 | 63 | 1011.1 |
| 20260508221925 | 16 | 226 | 0.0 | 0.0 | 0.00 | 0.00 | 0.00 | 62 | 1011.1 |
| 20260508221421 | 15 | 228 | 0.0 | 0.0 | 0.00 | 0.00 | 0.00 | 62 | 1011.1 |
| 20260508220917 | 15 | 228 | 0.0 | 0.0 | 0.00 | 0.00 | 0.00 | 63 | 1011.1 |
| 20260508220414 | 15 | 228 | 0.0 | 0.0 | 0.00 | 0.00 | 0.00 | 63 | 1011.1 |
| 20260508215910 | 15 | 227 | 0.0 | 0.0 | 0.00 | 0.00 | 0.00 | 65 | 1011.1 |
| 20260508215408 | 16 | 227 | 0.0 | 0.0 | 0.00 | 0.00 | 0.00 | 67 | 1011.1 |
| 20260508214904 | 16 | 246 | 0.0 | 0.0 | 0.00 | 0.00 | 0.00 | 66 | 1011.1 |
| 20260508214402 | 16 | 232 | 0.0 | 0.0 | 0.00 | 0.00 | 0.00 | 66 | 1011.1 |
| 20260508213857 | 16 | 238 | 0.0 | 0.0 | 0.00 | 0.00 | 0.00 | 65 | 1011.1 |
| 20260508213355 | 16 | 225 | 0.0 | 0.0 | 0.00 | 0.00 | 0.00 | 65 | 1011.1 |
| 20260508212850 | 16 | 247 | 0.0 | 1.6 | 0.00 | 0.00 | 0.00 | 63 | 1011.1 |
| 20260508212347 | 16 | 224 | 0.0 | 1.6 | 0.00 | 0.00 | 0.00 | 62 | 1011.4 |
| 20260508211843 | 16 | 258 | 1.6 | 3.2 | 0.00 | 0.00 | 0.00 | 59 | 1011.4 |
| 20260508211339 | 16 | 271 | 3.2 | 4.8 | 0.00 | 0.00 | 0.00 | 57 | 1011.4 |
| 20260508210836 | 17 | 258 | 1.6 | 3.2 | 0.00 | 0.00 | 0.00 | 58 | 1011.4 |
| 20260508210333 | 16 | 252 | 1.6 | 3.2 | 0.00 | 0.00 | 0.00 | 57 | 1011.4 |
| 20260508205829 | 17 | 261 | 1.6 | 1.6 | 0.00 | 0.00 | 0.00 | 59 | 1011.4 |
| 20260508205326 | 17 | 256 | 1.6 | 3.2 | 0.00 | 0.00 | 0.00 | 57 | 1011.7 |
| 20260508204817 | 17 | 244 | 1.6 | 4.8 | 0.00 | 0.00 | 0.00 | 58 | 1011.7 |
| 20260508204314 | 17 | 248 | 4.8 | 8.0 | 0.00 | 0.00 | 0.00 | 58 | 1011.7 |
| 20260508203810 | 17 | 275 | 3.2 | 4.8 | 0.00 | 0.00 | 0.00 | 57 | 1011.6 |
| 20260508203306 | 17 | 255 | 3.2 | 3.2 | 0.00 | 0.00 | 0.00 | 57 | 1011.6 |
| 20260508202802 | 17 | 259 | 4.8 | 8.0 | 0.00 | 0.00 | 0.00 | 54 | 1012.0 |
| 20260508202259 | 17 | 280 | 4.8 | 4.8 | 0.00 | 0.00 | 0.00 | 55 | 1012.0 |
| 20260508201756 | 17 | 258 | 3.2 | 8.0 | 0.00 | 0.00 | 0.00 | 56 | 1012.0 |
| 20260508201253 | 17 | 259 | 3.2 | 4.8 | 0.00 | 0.00 | 0.00 | 57 | 1012.0 |
| 20260508200750 | 17 | 257 | 4.8 | 8.0 | 0.00 | 0.00 | 0.00 | 55 | 1012.0 |
| 20260508200246 | 17 | 261 | 4.8 | 4.8 | 0.00 | 0.00 | 0.00 | 54 | 1012.0 |
| 20260508195742 | 17 | 268 | 4.8 | 9.7 | 0.00 | 0.00 | 0.00 | 54 | 1012.0 |
| 20260508195239 | 17 | 271 | 6.4 | 11.3 | 0.00 | 0.00 | 0.00 | 53 | 1012.2 |
| 20260508194735 | 17 | 263 | 6.4 | 9.7 | 0.00 | 0.00 | 0.00 | 53 | 1012.2 |
| 20260508194232 | 17 | 256 | 6.4 | 9.7 | 0.00 | 0.00 | 0.00 | 53 | 1012.2 |
| 20260508193730 | 17 | 268 | 8.0 | 12.9 | 0.00 | 0.00 | 0.00 | 54 | 1012.2 |
| 20260508193226 | 17 | 276 | 8.0 | 12.9 | 0.00 | 0.00 | 0.00 | 52 | 1012.2 |
| 20260508192722 | 17 | 261 | 8.0 | 9.7 | 0.00 | 0.00 | 0.00 | 52 | 1012.2 |
| 20260508192220 | 18 | 264 | 8.0 | 12.9 | 0.00 | 0.00 | 0.00 | 53 | 1012.2 |
| 20260508191717 | 18 | 255 | 8.0 | 11.3 | 0.00 | 0.00 | 0.00 | 52 | 1012.2 |
| 20260508191214 | 18 | 262 | 8.0 | 12.9 | 0.00 | 0.00 | 0.00 | 51 | 1012.2 |
| 20260508190711 | 18 | 267 | 8.0 | 9.7 | 0.00 | 0.00 | 0.00 | 52 | |
| 20260508190207 | 17 | 259 | 4.8 | 9.7 | 0.00 | 0.00 | 0.00 | 53 | |
| 20260508185704 | 17 | 258 | 8.0 | 11.3 | 0.00 | 0.00 | 0.00 | 51 | |
| 20260508185201 | 18 | 269 | 8.0 | 9.7 | 0.00 | 0.00 | 0.00 | 54 | |
| 20260508184658 | 18 | 257 | 8.0 | 9.7 | 0.00 | 0.00 | 0.00 | 53 | |
| 20260508184156 | 18 | 260 | 6.4 | 9.7 | 0.00 | 0.00 | 0.00 | 52 | |
| 20260508183652 | 18 | 269 | 9.7 | 14.5 | 0.00 | 0.00 | 0.00 | 50 | |
| 20260508183148 | 18 | 266 | 9.7 | 14.5 | 0.00 | 0.00 | 0.00 | 51 | |
| 20260508182644 | 18 | 255 | 4.8 | 9.7 | 0.00 | 0.00 | 0.00 | 53 | 1013.6 |
| 20260508182141 | 18 | 236 | 4.8 | 8.0 | 0.00 | 0.00 | 0.00 | 53 | 1013.6 |
| 20260508181636 | 18 | 259 | 6.4 | 11.3 | 0.00 | 0.00 | 0.00 | 55 | 1013.6 |
| 20260508181134 | 18 | 275 | 8.0 | 9.7 | 0.00 | 0.00 | 0.00 | 52 | 1013.6 |
| 20260508180630 | 18 | 263 | 4.8 | 8.0 | 0.00 | 0.00 | 0.00 | 56 | 1013.6 |
| 20260508180127 | 17 | 260 | 8.0 | 9.7 | 0.00 | 0.00 | 0.00 | 53 | 1013.6 |
| 20260508175624 | 17 | 259 | 6.4 | 9.7 | 0.00 | 0.00 | 0.00 | 53 | 1013.6 |
| 20260508175121 | 17 | 261 | 4.8 | 9.7 | 0.00 | 0.00 | 0.00 | 55 | 1013.6 |
| 20260508174618 | 17 | 245 | 9.7 | 12.9 | 0.00 | 0.00 | 0.00 | 53 | 1013.6 |
| 20260508174115 | 17 | 275 | 8.0 | 11.3 | 0.00 | 0.00 | 0.00 | 54 | 1013.6 |
| 20260508173612 | 17 | 267 | 4.8 | 8.0 | 0.00 | 0.00 | 0.00 | 54 | 1013.6 |
| 20260508173108 | 18 | 258 | 11.3 | 14.5 | 0.00 | 0.00 | 0.00 | 54 | 1013.6 |
| 20260508172606 | 17 | 257 | 6.4 | 9.7 | 0.00 | 0.00 | 0.00 | 55 | 1013.6 |
| 20260508172102 | 17 | 265 | 6.4 | 12.9 | 0.00 | 0.00 | 0.00 | 54 | 1014.7 |
| 20260508171558 | 18 | 255 | 9.7 | 11.3 | 0.00 | 0.00 | 0.00 | 51 | 1014.7 |
| 20260508171055 | 18 | 258 | 8.0 | 11.3 | 0.00 | 0.00 | 0.00 | 53 | 1014.7 |
| 20260508170553 | 17 | 256 | 9.7 | 11.3 | 0.00 | 0.00 | 0.00 | 53 | 1014.7 |
| 20260508170050 | 17 | 267 | 6.4 | 12.9 | 0.00 | 0.00 | 0.00 | 53 | 1014.7 |
| 20260508165547 | 17 | 251 | 8.0 | 12.9 | 0.00 | 0.00 | 0.00 | 54 | 1014.7 |
| 20260508165044 | 17 | 263 | 11.3 | 14.5 | 0.00 | 0.00 | 0.00 | 53 | 1014.7 |
| 20260508164540 | 17 | 270 | 6.4 | 9.7 | 0.00 | 0.00 | 0.00 | 54 | 1014.7 |
| 20260508164037 | 17 | 269 | 9.7 | 11.3 | 0.00 | 0.00 | 0.00 | 54 | 1014.7 |
| 20260508163534 | 17 | 258 | 8.0 | 9.7 | 0.00 | 0.00 | 0.00 | 55 | 1014.7 |
| 20260508163031 | 17 | 261 | 8.0 | 11.3 | 0.00 | 0.00 | 0.00 | 53 | 1014.5 |
| 20260508162528 | 17 | 257 | 11.3 | 12.9 | 0.00 | 0.00 | 0.00 | 53 | 1014.5 |
| 20260508162025 | 17 | 264 | 8.0 | 14.5 | 0.00 | 0.00 | 0.00 | 53 | 1014.7 |
| 20260508161522 | 17 | 273 | 9.7 | 12.9 | 0.00 | 0.00 | 0.00 | 53 | 1014.7 |
| 20260508161019 | 17 | 262 | 11.3 | 12.9 | 0.00 | 0.00 | 0.00 | 54 | 1014.7 |
| 20260508160517 | 16 | 264 | 9.7 | 12.9 | 0.00 | 0.00 | 0.00 | 56 | 1014.7 |
| 20260508160014 | 16 | 271 | 11.3 | 12.9 | 0.00 | 0.00 | 0.00 | 54 | |
| 20260508155511 | 16 | 266 | 9.7 | 12.9 | 0.00 | 0.00 | 0.00 | 54 | |
| 20260508155008 | 17 | 271 | 11.3 | 16.1 | 0.00 | 0.00 | 0.00 | 54 | |
| 20260508154505 | 17 | 272 | 8.0 | 11.3 | 0.00 | 0.00 | 0.00 | 54 | |
| 20260508154002 | 17 | 271 | 9.7 | 11.3 | 0.00 | 0.00 | 0.00 | 55 | |
| 20260508153458 | 16 | 267 | 11.3 | 12.9 | 0.00 | 0.00 | 0.00 | 55 | |
| 20260508152955 | 16 | 259 | 11.3 | 14.5 | 0.00 | 0.00 | 0.00 | 55 | |
| 20260508152452 | 16 | 272 | 8.0 | 12.9 | 0.00 | 0.00 | 0.00 | 56 | |
| 20260508151948 | 16 | 259 | 8.0 | 11.3 | 0.00 | 0.00 | 0.00 | 59 | |
| 20260508151444 | 16 | 268 | 6.4 | 9.7 | 0.00 | 0.00 | 0.00 | 57 | |
| 20260508150941 | 16 | 275 | 4.8 | 8.0 | 0.00 | 0.00 | 0.00 | 62 | |
| 20260508150438 | 15 | 277 | 8.0 | 11.3 | 0.00 | 0.00 | 0.00 | 58 | |
| 20260508145933 | 15 | 268 | 11.3 | 11.3 | 0.00 | 0.00 | 0.00 | 59 | |
| 20260508145430 | 15 | 259 | 9.7 | 11.3 | 0.00 | 0.00 | 0.00 | 58 | |
| 20260508144927 | 15 | 269 | 6.4 | 9.7 | 0.00 | 0.00 | 0.00 | 59 | |
| 20260508144425 | 15 | 262 | 6.4 | 11.3 | 0.00 | 0.00 | 0.00 | 61 | |
| 20260508143923 | 14 | 278 | 8.0 | 11.3 | 0.00 | 0.00 | 0.00 | 60 | |
| 20260508143420 | 14 | 268 | 6.4 | 12.9 | 0.00 | 0.00 | 0.00 | 60 | |
| 20260508142916 | 14 | 256 | 8.0 | 11.3 | 0.00 | 0.00 | 0.00 | 59 | |
| 20260508142413 | 14 | 255 | 4.8 | 8.0 | 0.00 | 0.00 | 0.00 | 61 | |
| 20260508141909 | 14 | 270 | 6.4 | 11.3 | 0.00 | 0.00 | 0.00 | 59 | |
| 20260508141406 | 14 | 273 | 6.4 | 8.0 | 0.00 | 0.00 | 0.00 | 60 | |
| 20260508140904 | 15 | 239 | 3.2 | 9.7 | 0.00 | 0.00 | 0.00 | 58 | |
| 20260508140401 | 14 | 256 | 8.0 | 9.7 | 0.00 | 0.00 | 0.00 | 59 | |
| 20260508135856 | 14 | 269 | 4.8 | 11.3 | 0.00 | 0.00 | 0.00 | 60 | |
| 20260508135353 | 13 | 268 | 9.7 | 14.5 | 0.00 | 0.00 | 0.00 | 57 | |
| 20260508134849 | 14 | 260 | 6.4 | 11.3 | 0.00 | 0.00 | 0.00 | 58 | |
| 20260508134346 | 15 | 250 | 6.4 | 9.7 | 0.00 | 0.00 | 0.00 | 58 | |
| 20260508133842 | 13 | 283 | 6.4 | 9.7 | 0.00 | 0.00 | 0.00 | 61 | |
| 20260508133341 | 14 | 262 | 4.8 | 8.0 | 0.00 | 0.00 | 0.00 | 62 | |
| 20260508132837 | 13 | 258 | 8.0 | 11.3 | 0.00 | 0.00 | 0.00 | 61 | |
| 20260508132335 | 13 | 253 | 3.2 | 8.0 | 0.00 | 0.00 | 0.00 | 61 | |
| 20260508131832 | 12 | 269 | 4.8 | 8.0 | 0.00 | 0.00 | 0.00 | 61 | |
| 20260508131327 | 12 | 269 | 4.8 | 8.0 | 0.00 | 0.00 | 0.00 | 60 | |
| 20260508130824 | 12 | 257 | 6.4 | 9.7 | 0.00 | 0.00 | 0.00 | 61 | |
| 20260508130321 | 12 | 257 | 4.8 | 9.7 | 0.00 | 0.00 | 0.00 | 63 | |
| 20260508125817 | 12 | 245 | 3.2 | 8.0 | 0.00 | 0.00 | 0.00 | 64 | |
| 20260508125314 | 12 | 258 | 1.6 | 3.2 | 0.00 | 0.00 | 0.00 | 66 | |
| 20260508124812 | 12 | 287 | 3.2 | 8.0 | 0.00 | 0.00 | 0.00 | 63 | |
| 20260508124308 | 11 | 253 | 1.6 | 4.8 | 0.00 | 0.00 | 0.00 | 65 | |
| 20260508123807 | 11 | 267 | 1.6 | 3.2 | 0.00 | 0.00 | 0.00 | 66 | 1015.2 |
| 20260508123305 | 11 | 256 | 1.6 | 3.2 | 0.00 | 0.00 | 0.00 | 66 | 1015.2 |
| 20260508122800 | 11 | 241 | 1.6 | 4.8 | 0.00 | 0.00 | 0.00 | 68 | 1015.2 |
| 20260508122257 | 11 | 259 | 3.2 | 3.2 | 0.00 | 0.00 | 0.00 | 65 | 1015.2 |
| 20260508121755 | 10 | 243 | 1.6 | 3.2 | 0.00 | 0.00 | 0.00 | 70 | 1015.2 |
| 20260508121253 | 10 | 245 | 1.6 | 1.6 | 0.00 | 0.00 | 0.00 | 72 | 1015.2 |
| 20260508120750 | 10 | 266 | 0.0 | 1.6 | 0.00 | 0.00 | 0.00 | 68 | 1015.2 |
| 20260508120249 | 10 | 260 | 0.0 | 3.2 | 0.00 | 0.00 | 0.00 | 70 | 1015.2 |
| 20260508115746 | 10 | 254 | 1.6 | 3.2 | 0.00 | 0.00 | 0.00 | 71 | 1015.2 |
| 20260508115243 | 10 | 254 | 1.6 | 3.2 | 0.00 | 0.00 | 0.00 | 71 | 1015.2 |
| 20260508114739 | 9 | 256 | 1.6 | 3.2 | 0.00 | 0.00 | 0.00 | 72 | 1015.2 |
| 20260508114236 | 10 | 250 | 1.6 | 3.2 | 0.00 | 0.00 | 0.00 | 71 | 1015.2 |
| 20260508113732 | 10 | 257 | 1.6 | 3.2 | 0.00 | 0.00 | 0.00 | 70 | |
| 20260508113231 | 10 | 258 | 1.6 | 3.2 | 0.00 | 0.00 | 0.00 | 70 | |
| 20260508112727 | 10 | 253 | 1.6 | 3.2 | 0.00 | 0.00 | 0.00 | 71 | |
| 20260508112224 | 9 | 237 | 0.0 | 3.2 | 0.00 | 0.00 | 0.00 | 73 | |
| 20260508111720 | 9 | 240 | 3.2 | 3.2 | 0.00 | 0.00 | 0.00 | 72 | |
| 20260508111219 | 9 | 242 | 1.6 | 3.2 | 0.00 | 0.00 | 0.00 | 70 | |
| 20260508110715 | 9 | 247 | 1.6 | 3.2 | 0.00 | 0.00 | 0.00 | 70 | |
| 20260508110212 | 9 | 249 | 1.6 | 3.2 | 0.00 | 0.00 | 0.00 | 71 | |
| 20260508105712 | 9 | 242 | 0.0 | 3.2 | 0.00 | 0.00 | 0.00 | 72 | |
| 20260508105209 | 8 | 247 | 1.6 | 4.8 | 0.00 | 0.00 | 0.00 | 71 | |
| 20260508104707 | 8 | 231 | 3.2 | 3.2 | 0.00 | 0.00 | 0.00 | 70 | |
| 20260508104203 | 8 | 252 | 1.6 | 3.2 | 0.00 | 0.00 | 0.00 | 71 | |
| 20260508103700 | 8 | 249 | 3.2 | 4.8 | 0.00 | 0.00 | 0.00 | 71 | |
| 20260508103158 | 8 | 252 | 3.2 | 3.2 | 0.00 | 0.00 | 0.00 | 72 | |
| 20260508102655 | 8 | 247 | 1.6 | 3.2 | 0.00 | 0.00 | 0.00 | 71 | |
| 20260508102153 | 9 | 251 | 3.2 | 3.2 | 0.00 | 0.00 | 0.00 | 71 | |
| 20260508101649 | 9 | 248 | 3.2 | 3.2 | 0.00 | 0.00 | 0.00 | 70 | |
| 20260508101148 | 8 | 233 | 3.2 | 3.2 | 0.00 | 0.00 | 0.00 | 70 | |
| 20260508100644 | 8 | 230 | 3.2 | 3.2 | 0.00 | 0.00 | 0.00 | 71 | |
| 20260508100143 | 8 | 254 | 3.2 | 3.2 | 0.00 | 0.00 | 0.00 | 70 | |
| 20260508095639 | 8 | 242 | 1.6 | 4.8 | 0.00 | 0.00 | 0.00 | 70 | |
| 20260508095136 | 8 | 234 | 1.6 | 3.2 | 0.00 | 0.00 | 0.00 | 72 | |
| 20260508094633 | 8 | 254 | 1.6 | 3.2 | 0.00 | 0.00 | 0.00 | 71 | |
| 20260508094129 | 8 | 257 | 3.2 | 3.2 | 0.00 | 0.00 | 0.00 | 71 | |
| 20260508093627 | 8 | 261 | 3.2 | 4.8 | 0.00 | 0.00 | 0.00 | 71 | |
| 20260508093124 | 8 | 251 | 3.2 | 3.2 | 0.00 | 0.00 | 0.00 | 72 | |
| 20260508092621 | 8 | 259 | 3.2 | 4.8 | 0.00 | 0.00 | 0.00 | 72 | |
| 20260508092120 | 8 | 251 | 3.2 | 3.2 | 0.00 | 0.00 | 0.00 | 72 | |
| 20260508091617 | 8 | 259 | 3.2 | 3.2 | 0.00 | 0.00 | 0.00 | 73 | |
| 20260508091114 | 8 | 256 | 3.2 | 4.8 | 0.00 | 0.00 | 0.00 | 73 | |
| 20260508090612 | 8 | 267 | 3.2 | 3.2 | 0.00 | 0.00 | 0.00 | 73 | |
| 20260508090109 | 8 | 252 | 4.8 | 4.8 | 0.00 | 0.00 | 0.00 | 74 | |
| 20260508085605 | 8 | 252 | 3.2 | 4.8 | 0.00 | 0.00 | 0.00 | 74 | |
| 20260508085102 | 8 | 273 | 4.8 | 4.8 | 0.00 | 0.00 | 0.00 | 73 | |
| 20260508084559 | 8 | 262 | 3.2 | 3.2 | 0.00 | 0.00 | 0.00 | 73 | |
| 20260508084056 | 8 | 252 | 3.2 | 3.2 | 0.00 | 0.00 | 0.00 | 72 | |
| 20260508083553 | 8 | 258 | 3.2 | 4.8 | 0.00 | 0.00 | 0.00 | 72 | |
| 20260508083050 | 8 | 253 | 1.6 | 3.2 | 0.00 | 0.00 | 0.00 | 73 | |
| 20260508082546 | 7 | 249 | 3.2 | 4.8 | 0.00 | 0.00 | 0.00 | 73 | |
| 20260508082043 | 8 | 258 | 3.2 | 4.8 | 0.00 | 0.00 | 0.00 | 73 | |
| 20260508081541 | 8 | 247 | 3.2 | 3.2 | 0.00 | 0.00 | 0.00 | 73 | |
| 20260508081036 | 8 | 242 | 4.8 | 4.8 | 0.00 | 0.00 | 0.00 | 73 | |
| 20260508080535 | 8 | 252 | 3.2 | 4.8 | 0.00 | 0.00 | 0.00 | 72 | |
| 20260508080032 | 8 | 250 | 3.2 | 3.2 | 0.00 | 0.00 | 0.00 | 73 | |
| 20260508075528 | 8 | 261 | 4.8 | 4.8 | 0.00 | 0.00 | 0.00 | 73 | |
| 20260508075026 | 8 | 246 | 3.2 | 3.2 | 0.00 | 0.00 | 0.00 | 72 | |
| 20260508074523 | 8 | 248 | 1.6 | 4.8 | 0.00 | 0.00 | 0.00 | 71 | |
| 20260508074020 | 8 | 251 | 3.2 | 4.8 | 0.00 | 0.00 | 0.00 | 71 | |
| 20260508073517 | 8 | 252 | 3.2 | 3.2 | 0.00 | 0.00 | 0.00 | 71 | |
| 20260508073015 | 8 | 273 | 3.2 | 3.2 | 0.00 | 0.00 | 0.00 | 71 | |
| 20260508072510 | 8 | 256 | 3.2 | 3.2 | 0.00 | 0.00 | 0.00 | 71 | |
| 20260508072008 | 8 | 256 | 1.6 | 3.2 | 0.00 | 0.00 | 0.00 | 71 | |
| 20260508071506 | 8 | 260 | 3.2 | 3.2 | 0.00 | 0.00 | 0.00 | 70 | |
| 20260508071003 | 8 | 256 | 3.2 | 4.8 | 0.00 | 0.00 | 0.00 | 70 | |
| 20260508070500 | 8 | 257 | 3.2 | 3.2 | 0.00 | 0.00 | 0.00 | 72 | |
| 20260508065958 | 8 | 261 | 3.2 | 3.2 | 0.00 | 0.00 | 0.00 | 70 | |
| 20260508065456 | 8 | 262 | 3.2 | 4.8 | 0.00 | 0.00 | 0.00 | 68 | |
| 20260508064954 | 8 | 260 | 3.2 | 3.2 | 0.00 | 0.00 | 0.00 | 70 | |
| 20260508064451 | 8 | 258 | 3.2 | 3.2 | 0.00 | 0.00 | 0.00 | 69 | |
| 20260508063949 | 8 | 264 | 3.2 | 4.8 | 0.00 | 0.00 | 0.00 | 69 | |
| 20260508063446 | 8 | 255 | 4.8 | 8.0 | 0.00 | 0.00 | 0.00 | 68 | |
| 20260508062944 | 8 | 255 | 3.2 | 3.2 | 0.00 | 0.00 | 0.00 | 69 | |
| 20260508062441 | 9 | 253 | 4.8 | 4.8 | 0.00 | 0.00 | 0.00 | 69 | |
| 20260508061938 | 9 | 257 | 6.4 | 8.0 | 0.00 | 0.00 | 0.00 | 68 | |
| 20260508061436 | 9 | 260 | 4.8 | 8.0 | 0.00 | 0.00 | 0.00 | 67 | |
| 20260508060932 | 9 | 256 | 4.8 | 4.8 | 0.00 | 0.00 | 0.00 | 67 | |
| 20260508060430 | 9 | 263 | 3.2 | 4.8 | 0.00 | 0.00 | 0.00 | 67 | |
| 20260508055925 | 9 | 242 | 3.2 | 8.0 | 0.00 | 0.00 | 0.00 | 66 | |
| 20260508055422 | 9 | 257 | 4.8 | 4.8 | 0.00 | 0.00 | 0.00 | 66 | |
| 20260508054918 | 9 | 261 | 4.8 | 4.8 | 0.00 | 0.00 | 0.00 | 66 | |
| 20260508054416 | 10 | 250 | 3.2 | 4.8 | 0.00 | 0.00 | 0.00 | 65 | |
| 20260508053913 | 10 | 261 | 4.8 | 8.0 | 0.00 | 0.00 | 0.00 | 65 | |
| 20260508053410 | 10 | 245 | 3.2 | 3.2 | 0.00 | 0.00 | 0.00 | 64 | |
| 20260508052908 | 10 | 246 | 4.8 | 4.8 | 0.00 | 0.00 | 0.00 | 65 | |
| 20260508052405 | 9 | 239 | 3.2 | 4.8 | 0.00 | 0.00 | 0.00 | 65 | |
| 20260508051901 | 9 | 244 | 1.6 | 4.8 | 0.00 | 0.00 | 0.00 | 67 | |
| 20260508051357 | 10 | 235 | 3.2 | 4.8 | 0.00 | 0.00 | 0.00 | 65 | |
| 20260508050853 | 10 | 254 | 3.2 | 3.2 | 0.00 | 0.00 | 0.00 | 66 | |
| 20260508050350 | 10 | 242 | 1.6 | 3.2 | 0.00 | 0.00 | 0.00 | 66 | |
| 20260508045846 | 10 | 252 | 1.6 | 4.8 | 0.00 | 0.00 | 0.00 | 65 | |
| 20260508045344 | 10 | 246 | 4.8 | 4.8 | 0.00 | 0.00 | 0.00 | 64 | |
| 20260508044841 | 10 | 221 | 4.8 | 4.8 | 0.00 | 0.00 | 0.00 | 64 | |
| 20260508044337 | 10 | 233 | 4.8 | 4.8 | 0.00 | 0.00 | 0.00 | 67 | |
| 20260508043833 | 9 | 254 | 3.2 | 4.8 | 0.00 | 0.00 | 0.00 | 67 | |
| 20260508043331 | 9 | 218 | 1.6 | 3.2 | 0.00 | 0.00 | 0.00 | 68 | |
| 20260508042827 | 10 | 224 | 0.0 | 1.6 | 0.00 | 0.00 | 0.00 | 68 | |
| 20260508042325 | 10 | 221 | 0.0 | 3.2 | 0.00 | 0.00 | 0.00 | 69 | |
| 20260508041822 | 10 | 229 | 1.6 | 3.2 | 0.00 | 0.00 | 0.00 | 67 | |
| 20260508041318 | 10 | 249 | 1.6 | 1.6 | 0.00 | 0.00 | 0.00 | 65 | |
| 20260508040815 | 10 | 233 | 0.0 | 1.6 | 0.00 | 0.00 | 0.00 | 66 | |
| 20260508040312 | 10 | 222 | 0.0 | 3.2 | 0.00 | 0.00 | 0.00 | 68 | |
| 20260508035809 | 10 | 239 | 1.6 | 1.6 | 0.00 | 0.00 | 0.00 | 67 | |
| 20260508035307 | 10 | 247 | 0.0 | 0.0 | 0.00 | 0.00 | 0.00 | 70 | |
| 20260508034803 | 10 | 241 | 1.6 | 3.2 | 0.00 | 0.00 | 0.00 | 68 | |
| 20260508034300 | 10 | 240 | 0.0 | 1.6 | 0.00 | 0.00 | 0.00 | 70 | |
| 20260508033757 | 10 | 242 | 0.0 | 1.6 | 0.00 | 0.00 | 0.00 | 71 | |
| 20260508033256 | 10 | 220 | 0.0 | 0.0 | 0.00 | 0.00 | 0.00 | 70 | |
| 20260508032753 | 10 | 225 | 0.0 | 0.0 | 0.00 | 0.00 | 0.00 | 70 | |
| 20260508032250 | 10 | 221 | 0.0 | 0.0 | 0.00 | 0.00 | 0.00 | 70 | |
| 20260508031746 | 10 | 220 | 0.0 | 0.0 | 0.00 | 0.00 | 0.00 | 71 | |
| 20260508031243 | 10 | 224 | 0.0 | 0.0 | 0.00 | 0.00 | 0.00 | 71 | |
| 20260508030739 | 10 | 208 | 0.0 | 1.6 | 0.00 | 0.00 | 0.00 | 71 | |
| 20260508030237 | 10 | 242 | 0.0 | 1.6 | 0.00 | 0.00 | 0.00 | 69 | |
| 20260508025733 | 10 | 244 | 0.0 | 0.0 | 0.00 | 0.00 | 0.00 | 70 | |
| 20260508025230 | 10 | 223 | 0.0 | 0.0 | 0.00 | 0.00 | 0.00 | 74 | |
| 20260508024726 | 10 | 241 | 0.0 | 1.6 | 0.00 | 0.00 | 0.00 | 71 | |
| 20260508024223 | 10 | 230 | 0.0 | 0.0 | 0.00 | 0.00 | 0.00 | 71 | |
| 20260508023720 | 10 | 223 | 0.0 | 0.0 | 0.00 | 0.00 | 0.00 | 72 | |
| 20260508023218 | 10 | 232 | 0.0 | 0.0 | 0.00 | 0.00 | 0.00 | 73 | |
| 20260508022713 | 10 | 239 | 0.0 | 0.0 | 0.00 | 0.00 | 0.00 | 70 | |
| 20260508022210 | 10 | 200 | 0.0 | 0.0 | 0.00 | 0.00 | 0.00 | 69 | 1015.2 |
| 20260508021707 | 10 | 223 | 0.0 | 1.6 | 0.00 | 0.00 | 0.00 | 72 | 1015.2 |
| 20260508021202 | 10 | 212 | 0.0 | 0.0 | 0.00 | 0.00 | 0.00 | 77 | 1015.2 |
| 20260508020700 | 10 | 233 | 0.0 | 0.0 | 0.00 | 0.00 | 0.00 | 77 | 1015.2 |
| 20260508020157 | 10 | 208 | 0.0 | 0.0 | 0.00 | 0.00 | 0.00 | 70 | 1015.2 |
| 20260508015654 | 10 | 207 | 0.0 | 0.0 | 0.00 | 0.00 | 0.00 | 71 | 1015.2 |
| 20260508015151 | 10 | 207 | 0.0 | 0.0 | 0.00 | 0.00 | 0.00 | 75 | 1015.2 |
| 20260508014648 | 10 | 206 | 0.0 | 0.0 | 0.00 | 0.00 | 0.00 | 67 | 1015.2 |
| 20260508014144 | 10 | 206 | 0.0 | 0.0 | 0.00 | 0.00 | 0.00 | 68 | 1015.2 |
| 20260508013640 | 10 | 206 | 0.0 | 0.0 | 0.00 | 0.00 | 0.00 | 73 | 1015.2 |
| 20260508013137 | 10 | 205 | 0.0 | 0.0 | 0.00 | 0.00 | 0.00 | 68 | 1015.2 |
| 20260508012635 | 10 | 205 | 0.0 | 0.0 | 0.00 | 0.00 | 0.00 | 70 | 1015.2 |
| 20260508012132 | 11 | 208 | 1.6 | 1.6 | 0.00 | 0.00 | 0.00 | 69 | 1015.3 |
| 20260508011630 | 11 | 263 | 0.0 | 0.0 | 0.00 | 0.00 | 0.00 | 65 | 1015.1 |
| 20260508011127 | 11 | 262 | 0.0 | 0.0 | 0.00 | 0.00 | 0.00 | 65 | 1015.1 |
| 20260508010624 | 11 | 239 | 0.0 | 0.0 | 0.00 | 0.00 | 0.00 | 62 | 1015.1 |
| 20260508010122 | 11 | 225 | 0.0 | 0.0 | 0.00 | 0.00 | 0.00 | 61 | 1015.1 |
| 20260508005619 | 11 | 230 | 0.0 | 0.0 | 0.00 | 0.00 | 0.00 | 64 | 1015.1 |
| 20260508005114 | 11 | 230 | 0.0 | 0.0 | 0.00 | 0.00 | 0.00 | 64 | 1015.4 |
| 20260508004611 | 11 | 248 | 0.0 | 0.0 | 0.00 | 0.00 | 0.00 | 62 | 1015.4 |
| 20260508004108 | 11 | 228 | 0.0 | 0.0 | 0.00 | 0.00 | 0.00 | 66 | 1015.4 |
| 20260508003604 | 11 | 226 | 0.0 | 0.0 | 0.00 | 0.00 | 0.00 | 63 | 1015.4 |
| 20260508003102 | 11 | 232 | 0.0 | 0.0 | 0.00 | 0.00 | 0.00 | 66 | 1015.4 |
| 20260508002558 | 11 | 219 | 0.0 | 0.0 | 0.00 | 0.00 | 0.00 | 64 | 1015.4 |
| 20260508002055 | 12 | 230 | 0.0 | 0.0 | 0.00 | 0.00 | 0.00 | 61 | 1015.4 |
| 20260508001551 | 12 | 266 | 1.6 | 1.6 | 0.00 | 0.00 | 0.00 | 56 | 1015.4 |
| 20260508001047 | 12 | 258 | 1.6 | 1.6 | 0.00 | 0.00 | 0.00 | 56 | 1014.8 |